SCP
0 -0 -0 -1 -1 -1 -0 -0 -0 -0 -0 -0 -0 -0 -0 -0 -0 -0 -0 -0 -0 -0 -0 -0 -0 -0 -0 -0 -0 -0 -0 -0 -0 -0 -0 0 0 -0 0 0 0 0 0
-1 -0 -0 -1 -1 -1 -1 -0 -0 -0 -0 -0 -0 -0 -0 -0 -0 -0 -0 -0 -0 -0 -0 -0 -0 -0 -0 -0 -0 -0 -0 -0 -0 -0 -0 0 0 0 0 0 0 0 0
-0 -0 -0 -0 -1 -1 -1 -0 -0 -0 -0 -0 -0 -0 -0 -0 -0 0 -0 -0 -0 -0 -0 -0 -0 -0 -0 0 -0 -0 0 0 0 0 0 -0 0 0 0 0 0 0 0
-0 -0 -0 -0 -1 -1 -1 -0 -0 -0 -0 -0 -0 0 0 0 0 0 0 0 0 0 -0 -0 -0 0 0 -0 0 -0 -0 -0 -0 -0 0 0 0 0 0 0 0 0 0
0 -0 0 0 -0 -0 -0 -0 -0 -0 -0 -0 -0 -0 0 0 -0 -0 -0 -0 -0 -0 -0 -0 0 0 0 -0 -0 -0 -0 -0 -0 -0 -0 0 0 0 0 0 0 0 0
0 1 0 0 0 0 -0 -0 -0 -0 -0 -0 0 0 0 0 -0 -0 -0 -0 -0 -0 -0 -0 -0 -0 -0 -0 -0 -0 -0 -0 -0 -0 -0 0 0 0 0 -0 0 0 0
1 1 1 0 0 0 0 0 0 0 0 0 0 0 0 0 -0 -0 -0 -0 -0 -0 -0 -0 -0 -0 -0 -0 -0 -0 -0 -0 -0 -0 -0 0 0 0 0 0 0 0 0
0 1 1 0 0 0 0 0 0 0 0 0 0 0 0 0 0 -0 0 0 -0 -0 -0 0 0 -0 -0 -0 -0 -0 -0 -0 -0 -0 -0 0 0 0 0 0 0 0 0
0 0 1 1 1 1 1 0 0 0 0 0 0 0 0 0 0 0 0 0 0 -0 -0 0 0 0 0 0 -0 -0 -0 -0 -0 -0 -0 0 0 0 0 0 0 -0 0
0 0 1 1 1 1 1 1 1 1 0 0 0 0 0 0 0 0 0 0 0 0 0 0 0 0 0 -0 -0 -0 -0 -0 -0 -0 -0 0 0 -0 0 0 0 -0 -0
1 0 0 1 1 1 1 1 1 1 1 1 0 0 0 0 0 0 0 0 0 0 0 0 0 0 0 0 -0 -0 0 0 -0 -0 -0 0 0 0 0 0 0 0 -0
1 0 0 1 1 1 2 1 1 1 1 1 1 1 1 0 0 0 0 0 0 0 0 0 0 0 0 0 0 -0 0 0 0 -0 0 0 0 0 0 0 0 0 0
1 1 0 1 1 1 2 2 1 1 1 1 1 1 1 0 0 0 0 0 0 0 0 0 0 0 0 0 0 0 0 0 0 0 0 0 0 0 0 0 0 0 0
2 1 1 1 1 1 2 2 1 2 1 1 1 1 1 0 0 0 0 0 0 0 0 0 0 0 0 0 0 0 0 0 0 0 0 0 0 0 0 0 0 0 0
0 1 1 0 0 0 1 1 1 1 1 1 1 1 1 1 0 0 0 0 0 0 0 0 0 0 0 0 0 0 0 0 0 0 0 0 0 0 0 0 0 0 0
-0 -0 0 0 0 0 1 1 1 0 1 1 1 1 2 1 1 1 0 0 0 0 0 0 0 0 0 0 0 0 0 0 0 0 0 0 0 0 1 1 1 1 0
0 -0 0 1 1 2 1 1 0 0 0 0 1 1 2 1 1 1 1 0 0 0 0 0 0 0 0 0 0 0 0 0 0 0 0 0 1 0 1 1 1 1 1
0 0 0 1 1 2 0 0 2 2 1 0 0 1 0 1 1 1 1 1 1 0 0 0 0 0 0 0 0 0 0 0 0 0 1 1 1 0 0 0 1 1 1
0 0 0 0 1 0 0 0 2 2 2 1 1 0 0 1 1 2 1 1 1 1 0 0 0 0 0 0 0 0 0 0 1 1 1 1 1 1 1 1 1 2 2
0 0 0 0 0 0 0 0 1 3 2 2 2 1 1 1 1 1 2 2 1 1 1 1 1 0 0 0 0 0 0 0 1 1 1 1 1 2 1 1 1 1 1
0 0 0 0 0 0 0 0 1 3 2 2 2 2 2 2 1 2 2 3 2 2 1 1 1 1 0 0 0 0 0 0 1 1 1 2 3 3 2 2 1 1 1
0 0 0 0 0 0 0 0 0 0 0 0 1 2 2 2 2 2 2 2 2 2 2 1 1 1 1 1 1 1 1 0 1 1 2 2 2 2 1 1 1 2 1
0 0 0 0 0 0 0 0 0 0 0 0 0 0 1 1 2 2 2 2 2 2 2 2 1 1 1 1 1 1 1 1 1 2 3 3 3 2 1 2 2 2 3
0 0 0 0 0 0 0 0 0 0 0 0 0 0 0 0 0 1 1 2 2 3 2 2 2 1 1 1 1 1 0 0 1 1 2 2 2 2 2 2 2 3 2
0 0 0 0 0 0 0 0 0 0 0 0 0 0 0 0 -0 0 0 1 2 2 0 0 1 0 0 0 1 1 0 0 1 1 1 2 2 2 2 2 3 3 2
0 0 0 0 0 0 0 0 0 0 0 0 0 0 0 0 0 -0 0 0 0 0 0 0 0 0 0 1 0 0 0 1 0 1 0 0 2 2 2 2 2 1 2
Wind_Speed_500mb
59 54 54 50 49 45 44 44 43 41 38 36 32 31 32 33 35 36 37 36 31 28 26 23 21 22 23 23 22 19 23 28 32 35 33 31 30 26 21 19 19 19 18
58 56 57 52 50 47 45 45 43 40 40 39 38 38 38 39 41 41 38 33 29 26 23 21 22 24 25 24 23 22 23 24 25 25 27 27 28 28 22 18 17 16 17
54 55 59 54 51 47 45 44 42 39 39 40 40 40 41 42 42 40 37 34 29 25 23 22 23 24 23 22 22 26 29 25 22 19 18 21 22 25 22 19 16 16 16
46 51 59 56 53 50 46 43 40 38 37 38 38 38 38 38 38 36 32 29 26 23 23 23 23 22 21 22 23 25 25 26 19 17 14 13 13 18 21 20 18 16 15
44 49 57 56 52 50 47 44 40 37 35 36 37 36 36 35 33 32 29 26 23 21 21 20 19 20 20 21 22 23 25 21 19 12 11 13 11 11 16 16 16 15 14
45 48 55 55 52 48 45 43 40 38 35 34 35 34 34 33 31 29 27 26 24 22 21 20 18 17 18 18 20 22 28 24 14 8 7 12 12 13 14 11 11 12 13
44 48 52 54 51 47 43 42 40 37 33 30 29 29 29 30 30 29 26 24 23 23 23 21 19 17 15 14 16 19 25 22 17 12 5 8 8 11 16 12 10 9 8
37 45 49 51 50 49 46 43 41 39 36 32 28 26 26 28 28 27 27 25 24 22 21 20 17 14 13 13 13 16 18 23 19 11 6 4 2 9 17 13 11 9 6
24 33 43 48 50 50 48 45 43 41 39 36 33 30 26 24 24 26 25 25 24 23 21 19 17 16 15 13 13 14 16 18 22 16 5 2 3 6 19 15 14 10 6
23 21 31 43 49 50 49 46 44 44 44 43 39 35 32 29 28 26 24 24 24 24 23 22 21 19 16 15 14 13 13 16 20 18 9 2 2 6 17 21 15 13 9
33 27 27 28 44 48 49 47 46 45 45 46 46 44 41 37 34 34 33 32 29 27 26 24 23 21 19 18 15 12 11 20 24 18 9 4 2 5 16 23 17 13 10
43 39 37 31 39 49 52 51 50 50 52 55 55 52 49 44 40 37 36 38 38 37 34 32 29 27 26 25 24 21 16 20 23 18 13 10 6 8 15 23 17 15 11
51 53 45 37 40 46 53 53 54 52 50 53 55 56 53 51 49 48 45 45 47 46 45 43 41 38 33 32 31 32 29 28 28 25 22 18 14 11 17 17 15 15 14
58 54 55 52 53 51 50 48 51 51 49 49 53 57 58 59 58 58 57 54 53 53 53 50 46 42 41 40 38 38 36 33 33 30 23 22 19 16 16 13 12 13 14
23 37 52 60 48 45 38 39 47 47 45 38 46 52 59 64 64 64 62 59 58 57 58 54 52 49 46 41 41 43 38 35 33 33 29 26 22 22 21 16 12 12 14
11 23 37 56 60 54 40 36 36 36 31 36 37 33 51 60 63 68 70 70 65 62 59 60 59 54 52 46 46 46 42 38 33 40 37 35 33 32 27 24 20 18 15
29 9 26 43 67 59 36 37 29 33 45 46 43 39 40 47 55 65 71 73 74 72 65 60 53 58 57 50 51 49 44 36 38 38 41 47 39 39 33 30 24 26 24
24 20 28 41 57 48 47 36 44 45 40 45 47 46 45 48 44 49 57 70 75 72 66 58 55 53 58 64 65 59 50 44 42 37 43 47 42 38 33 37 29 26 33
26 27 37 39 41 50 40 42 50 41 39 50 56 56 52 49 54 60 60 59 64 71 69 67 62 64 65 66 67 62 54 52 52 44 49 47 45 40 37 40 39 35 38
28 31 38 43 43 47 49 50 50 52 52 56 55 61 62 63 66 68 67 68 64 67 76 77 78 75 71 71 70 66 63 63 65 62 58 55 55 51 49 51 47 40 50
40 37 32 31 31 32 30 37 47 54 55 53 52 49 58 71 75 78 81 77 78 78 79 80 88 86 78 76 78 76 76 72 69 66 61 62 57 55 56 57 53 51 50
49 43 41 33 27 23 21 23 35 47 51 55 59 56 56 60 63 74 87 83 88 89 89 89 96 96 95 85 79 80 78 83 78 75 69 69 72 66 63 58 56 57 54
57 51 39 29 23 19 17 19 23 32 41 54 59 58 55 56 54 65 78 83 88 88 93 99 94 92 99 104 94 85 44 63 72 79 75 78 78 71 61 59 59 56 52
53 41 37 29 19 19 30 28 28 30 33 42 48 57 61 56 52 50 49 58 79 84 85 83 82 78 92 94 91 103 101 70 45 51 77 88 76 72 66 60 60 52 44
46 40 30 23 21 25 25 31 37 38 41 45 51 55 54 53 53 53 55 63 54 60 84 86 84 93 125 70 71 50 73 91 89 61 53 59 81 88 79 65 59 49 50
42 36 31 26 20 18 22 28 32 39 47 52 53 54 53 57 58 59 53 46 40 51 57 68 85 99 110 101 94 86 97 78 88 91 75 67 73 68 72 71 65 56 56
Wind_Direction_500mb
168 159 156 160 156 153 149 146 146 150 154 155 152 145 143 144 143 142 141 141 138 134 126 120 118 117 116 114 110 105 100 97 101 83 78 71 58 45 44 56 64 69 75
168 163 159 163 159 155 153 149 148 149 149 148 144 140 140 140 141 140 141 140 137 130 124 120 121 122 123 124 123 116 114 111 108 87 76 67 55 46 35 44 60 65 68
169 165 161 164 163 159 156 153 151 149 146 145 143 142 141 141 141 141 142 142 139 133 129 129 128 128 128 127 125 120 116 105 96 87 83 64 54 42 32 36 41 51 58
170 168 164 165 166 163 159 156 153 151 147 145 145 145 146 145 144 145 144 141 138 137 136 136 135 138 136 135 135 135 127 114 93 83 90 79 48 21 15 30 34 41 53
171 170 168 166 169 167 164 161 159 156 154 151 151 152 153 153 152 151 148 146 145 142 139 140 142 145 142 138 136 136 139 126 112 100 96 70 50 9 11 15 21 34 43
170 172 172 170 172 172 170 168 166 165 163 160 159 161 162 162 162 162 159 157 154 151 149 152 155 155 149 143 141 141 146 141 148 174 116 74 52 12 360 8 6 21 32
174 173 174 174 176 177 178 177 175 174 173 171 168 168 169 171 171 170 169 167 165 163 163 165 166 164 158 150 146 147 160 155 150 156 125 80 43 10 358 1 355 8 15
176 176 178 179 181 183 185 186 185 183 182 182 182 184 183 182 182 180 178 177 176 176 175 174 176 175 171 165 160 156 162 176 169 176 160 130 266 343 356 353 345 353 354
151 175 183 185 186 189 191 192 193 192 192 193 194 193 195 200 199 194 192 189 189 186 186 187 189 190 187 181 172 167 162 171 186 192 168 194 174 329 349 349 336 330 339
177 174 185 192 193 193 195 198 199 200 200 199 201 205 205 204 204 210 210 207 203 201 200 199 200 201 202 199 189 172 170 172 180 183 172 137 152 314 339 342 330 320 325
188 192 185 192 201 200 200 202 204 205 207 208 208 209 213 214 213 211 210 209 213 214 213 213 212 210 207 207 203 184 177 183 178 185 196 181 140 278 322 326 319 309 312
207 206 205 203 200 202 203 205 208 209 209 210 212 214 217 220 222 224 224 219 214 215 216 216 216 216 215 209 206 200 178 162 172 194 207 215 222 266 302 313 305 305 299
227 210 216 218 206 204 205 205 207 213 215 217 217 218 222 226 226 226 228 228 226 221 218 217 216 216 215 218 217 210 205 196 187 204 212 221 223 242 291 296 292 294 297
227 234 218 217 204 204 208 211 213 212 215 223 227 228 228 230 233 235 233 231 232 234 230 226 224 224 219 219 221 220 221 213 209 213 217 218 205 237 263 277 281 278 281
208 224 237 229 214 206 200 208 216 219 219 225 237 238 236 237 237 242 244 241 239 237 240 241 239 234 233 229 231 229 229 225 223 231 230 230 227 235 239 249 260 262 272
292 203 213 228 227 203 206 199 208 216 229 232 237 251 245 245 244 244 246 245 245 246 243 241 242 241 240 238 234 235 238 233 228 236 240 238 242 243 238 246 254 258 266
282 224 204 215 211 213 202 208 257 251 240 243 243 249 250 248 250 250 251 249 248 247 243 245 250 250 246 241 238 237 238 234 231 238 245 246 242 241 242 244 248 260 265
256 235 182 194 212 217 212 259 253 252 248 250 252 253 254 255 255 254 254 254 252 249 249 250 246 247 242 238 240 236 238 235 237 233 236 237 236 239 248 246 249 257 266
246 195 181 190 203 203 230 241 242 256 257 259 266 261 256 259 262 260 258 260 261 254 249 250 248 246 243 241 239 240 242 241 244 236 228 228 231 235 247 246 250 263 262
220 183 175 180 186 206 224 231 246 237 242 253 260 257 263 265 269 268 264 260 261 255 249 247 249 247 245 247 248 249 246 244 246 239 233 235 234 236 246 251 247 252 261
211 210 208 207 195 198 205 218 235 239 240 246 252 259 260 264 267 268 268 267 258 257 249 251 250 248 246 246 247 249 253 252 252 241 241 244 242 240 247 259 258 255 258
194 195 195 191 186 192 209 230 244 255 261 266 262 262 261 269 270 271 272 271 269 265 259 255 245 246 245 244 240 242 251 254 252 240 238 243 244 249 254 254 254 258 262
192 191 189 189 194 207 225 246 254 256 260 266 266 268 273 272 273 272 270 273 272 273 272 265 260 259 249 243 240 238 242 246 254 244 240 240 244 245 250 247 252 253 258
173 175 191 199 209 236 250 264 277 283 276 269 272 270 268 275 281 281 287 283 271 272 269 265 260 270 261 255 250 247 242 245 250 244 245 246 244 246 251 249 243 246 243
162 170 175 190 217 239 259 271 289 303 305 297 288 285 286 291 297 301 300 280 284 283 266 263 266 256 281 261 259 251 280 253 247 258 251 249 242 243 248 242 240 241 244
160 163 169 180 191 221 259 284 291 296 300 299 299 295 294 295 301 308 314 312 298 291 290 283 270 269 249 266 265 267 275 246 249 248 252 254 252 243 239 235 237 242 243
Wind_Speed_850mb
59 54 54 50 49 45 44 44 43 41 38 36 32 31 32 33 35 36 37 36 31 28 26 23 21 22 23 23 22 19 23 28 32 35 33 31 30 26 21 19 19 19 18
58 56 57 52 50 47 45 45 43 40 40 39 38 38 38 39 41 41 38 33 29 26 23 21 22 24 25 24 23 22 23 24 25 25 27 27 28 28 22 18 17 16 17
54 55 59 54 51 47 45 44 42 39 39 40 40 40 41 42 42 40 37 34 29 25 23 22 23 24 23 22 22 26 29 25 22 19 18 21 22 25 22 19 16 16 16
46 51 59 56 53 50 46 43 40 38 37 38 38 38 38 38 38 36 32 29 26 23 23 23 23 22 21 22 23 25 25 26 19 17 14 13 13 18 21 20 18 16 15
44 49 57 56 52 50 47 44 40 37 35 36 37 36 36 35 33 32 29 26 23 21 21 20 19 20 20 21 22 23 25 21 19 12 11 13 11 11 16 16 16 15 14
45 48 55 55 52 48 45 43 40 38 35 34 35 34 34 33 31 29 27 26 24 22 21 20 18 17 18 18 20 22 28 24 14 8 7 12 12 13 14 11 11 12 13
44 48 52 54 51 47 43 42 40 37 33 30 29 29 29 30 30 29 26 24 23 23 23 21 19 17 15 14 16 19 25 22 17 12 5 8 8 11 16 12 10 9 8
37 45 49 51 50 49 46 43 41 39 36 32 28 26 26 28 28 27 27 25 24 22 21 20 17 14 13 13 13 16 18 23 19 11 6 4 2 9 17 13 11 9 6
24 33 43 48 50 50 48 45 43 41 39 36 33 30 26 24 24 26 25 25 24 23 21 19 17 16 15 13 13 14 16 18 22 16 5 2 3 6 19 15 14 10 6
23 21 31 43 49 50 49 46 44 44 44 43 39 35 32 29 28 26 24 24 24 24 23 22 21 19 16 15 14 13 13 16 20 18 9 2 2 6 17 21 15 13 9
33 27 27 28 44 48 49 47 46 45 45 46 46 44 41 37 34 34 33 32 29 27 26 24 23 21 19 18 15 12 11 20 24 18 9 4 2 5 16 23 17 13 10
43 39 37 31 39 49 52 51 50 50 52 55 55 52 49 44 40 37 36 38 38 37 34 32 29 27 26 25 24 21 16 20 23 18 13 10 6 8 15 23 17 15 11
51 53 45 37 40 46 53 53 54 52 50 53 55 56 53 51 49 48 45 45 47 46 45 43 41 38 33 32 31 32 29 28 28 25 22 18 14 11 17 17 15 15 14
58 54 55 52 53 51 50 48 51 51 49 49 53 57 58 59 58 58 57 54 53 53 53 50 46 42 41 40 38 38 36 33 33 30 23 22 19 16 16 13 12 13 14
23 37 52 60 48 45 38 39 47 47 45 38 46 52 59 64 64 64 62 59 58 57 58 54 52 49 46 41 41 43 38 35 33 33 29 26 22 22 21 16 12 12 14
11 23 37 56 60 54 40 36 36 36 31 36 37 33 51 60 63 68 70 70 65 62 59 60 59 54 52 46 46 46 42 38 33 40 37 35 33 32 27 24 20 18 15
29 9 26 43 67 59 36 37 29 33 45 46 43 39 40 47 55 65 71 73 74 72 65 60 53 58 57 50 51 49 44 36 38 38 41 47 39 39 33 30 24 26 24
24 20 28 41 57 48 47 36 44 45 40 45 47 46 45 48 44 49 57 70 75 72 66 58 55 53 58 64 65 59 50 44 42 37 43 47 42 38 33 37 29 26 33
26 27 37 39 41 50 40 42 50 41 39 50 56 56 52 49 54 60 60 59 64 71 69 67 62 64 65 66 67 62 54 52 52 44 49 47 45 40 37 40 39 35 38
28 31 38 43 43 47 49 50 50 52 52 56 55 61 62 63 66 68 67 68 64 67 76 77 78 75 71 71 70 66 63 63 65 62 58 55 55 51 49 51 47 40 50
40 37 32 31 31 32 30 37 47 54 55 53 52 49 58 71 75 78 81 77 78 78 79 80 88 86 78 76 78 76 76 72 69 66 61 62 57 55 56 57 53 51 50
49 43 41 33 27 23 21 23 35 47 51 55 59 56 56 60 63 74 87 83 88 89 89 89 96 96 95 85 79 80 78 83 78 75 69 69 72 66 63 58 56 57 54
57 51 39 29 23 19 17 19 23 32 41 54 59 58 55 56 54 65 78 83 88 88 93 99 94 92 99 104 94 85 44 63 72 79 75 78 78 71 61 59 59 56 52
53 41 37 29 19 19 30 28 28 30 33 42 48 57 61 56 52 50 49 58 79 84 85 83 82 78 92 94 91 103 101 70 45 51 77 88 76 72 66 60 60 52 44
46 40 30 23 21 25 25 31 37 38 41 45 51 55 54 53 53 53 55 63 54 60 84 86 84 93 125 70 71 50 73 91 89 61 53 59 81 88 79 65 59 49 50
42 36 31 26 20 18 22 28 32 39 47 52 53 54 53 57 58 59 53 46 40 51 57 68 85 99 110 101 94 86 97 78 88 91 75 67 73 68 72 71 65 56 56
Wind_Direction_850mb
168 159 156 160 156 153 149 146 146 150 154 155 152 145 143 144 143 142 141 141 138 134 126 120 118 117 116 114 110 105 100 97 101 83 78 71 58 45 44 56 64 69 75
168 163 159 163 159 155 153 149 148 149 149 148 144 140 140 140 141 140 141 140 137 130 124 120 121 122 123 124 123 116 114 111 108 87 76 67 55 46 35 44 60 65 68
169 165 161 164 163 159 156 153 151 149 146 145 143 142 141 141 141 141 142 142 139 133 129 129 128 128 128 127 125 120 116 105 96 87 83 64 54 42 32 36 41 51 58
170 168 164 165 166 163 159 156 153 151 147 145 145 145 146 145 144 145 144 141 138 137 136 136 135 138 136 135 135 135 127 114 93 83 90 79 48 21 15 30 34 41 53
171 170 168 166 169 167 164 161 159 156 154 151 151 152 153 153 152 151 148 146 145 142 139 140 142 145 142 138 136 136 139 126 112 100 96 70 50 9 11 15 21 34 43
170 172 172 170 172 172 170 168 166 165 163 160 159 161 162 162 162 162 159 157 154 151 149 152 155 155 149 143 141 141 146 141 148 174 116 74 52 12 360 8 6 21 32
174 173 174 174 176 177 178 177 175 174 173 171 168 168 169 171 171 170 169 167 165 163 163 165 166 164 158 150 146 147 160 155 150 156 125 80 43 10 358 1 355 8 15
176 176 178 179 181 183 185 186 185 183 182 182 182 184 183 182 182 180 178 177 176 176 175 174 176 175 171 165 160 156 162 176 169 176 160 130 266 343 356 353 345 353 354
151 175 183 185 186 189 191 192 193 192 192 193 194 193 195 200 199 194 192 189 189 186 186 187 189 190 187 181 172 167 162 171 186 192 168 194 174 329 349 349 336 330 339
177 174 185 192 193 193 195 198 199 200 200 199 201 205 205 204 204 210 210 207 203 201 200 199 200 201 202 199 189 172 170 172 180 183 172 137 152 314 339 342 330 320 325
188 192 185 192 201 200 200 202 204 205 207 208 208 209 213 214 213 211 210 209 213 214 213 213 212 210 207 207 203 184 177 183 178 185 196 181 140 278 322 326 319 309 312
207 206 205 203 200 202 203 205 208 209 209 210 212 214 217 220 222 224 224 219 214 215 216 216 216 216 215 209 206 200 178 162 172 194 207 215 222 266 302 313 305 305 299
227 210 216 218 206 204 205 205 207 213 215 217 217 218 222 226 226 226 228 228 226 221 218 217 216 216 215 218 217 210 205 196 187 204 212 221 223 242 291 296 292 294 297
227 234 218 217 204 204 208 211 213 212 215 223 227 228 228 230 233 235 233 231 232 234 230 226 224 224 219 219 221 220 221 213 209 213 217 218 205 237 263 277 281 278 281
208 224 237 229 214 206 200 208 216 219 219 225 237 238 236 237 237 242 244 241 239 237 240 241 239 234 233 229 231 229 229 225 223 231 230 230 227 235 239 249 260 262 272
292 203 213 228 227 203 206 199 208 216 229 232 237 251 245 245 244 244 246 245 245 246 243 241 242 241 240 238 234 235 238 233 228 236 240 238 242 243 238 246 254 258 266
282 224 204 215 211 213 202 208 257 251 240 243 243 249 250 248 250 250 251 249 248 247 243 245 250 250 246 241 238 237 238 234 231 238 245 246 242 241 242 244 248 260 265
256 235 182 194 212 217 212 259 253 252 248 250 252 253 254 255 255 254 254 254 252 249 249 250 246 247 242 238 240 236 238 235 237 233 236 237 236 239 248 246 249 257 266
246 195 181 190 203 203 230 241 242 256 257 259 266 261 256 259 262 260 258 260 261 254 249 250 248 246 243 241 239 240 242 241 244 236 228 228 231 235 247 246 250 263 262
220 183 175 180 186 206 224 231 246 237 242 253 260 257 263 265 269 268 264 260 261 255 249 247 249 247 245 247 248 249 246 244 246 239 233 235 234 236 246 251 247 252 261
211 210 208 207 195 198 205 218 235 239 240 246 252 259 260 264 267 268 268 267 258 257 249 251 250 248 246 246 247 249 253 252 252 241 241 244 242 240 247 259 258 255 258
194 195 195 191 186 192 209 230 244 255 261 266 262 262 261 269 270 271 272 271 269 265 259 255 245 246 245 244 240 242 251 254 252 240 238 243 244 249 254 254 254 258 262
192 191 189 189 194 207 225 246 254 256 260 266 266 268 273 272 273 272 270 273 272 273 272 265 260 259 249 243 240 238 242 246 254 244 240 240 244 245 250 247 252 253 258
173 175 191 199 209 236 250 264 277 283 276 269 272 270 268 275 281 281 287 283 271 272 269 265 260 270 261 255 250 247 242 245 250 244 245 246 244 246 251 249 243 246 243
162 170 175 190 217 239 259 271 289 303 305 297 288 285 286 291 297 301 300 280 284 283 266 263 266 256 281 261 259 251 280 253 247 258 251 249 242 243 248 242 240 241 244
160 163 169 180 191 221 259 284 291 296 300 299 299 295 294 295 301 308 314 312 298 291 290 283 270 269 249 266 265 267 275 246 249 248 252 254 252 243 239 235 237 242 243